Flag for Botswana Weather past 2 weeks in Molepolole, Botswana

Now
63 °F

Sunny.


Feels Like: 63 °F
Forecast: 38 / 64 °F
Wind: 14 mph from Southwest

Location: Seretse Khama International Airport

Current Time: Jul 26, 2014 at 11:49:36 AM

Latest Report: Jul 26, 2014 at 11:00 AM


Visibility: 10 mi

Pressure: 30.21 "Hg

Humidity: 30%

Dew point: 30 °F

Location of MolepololeLocation

Historic Weather in Molepolole — Graph

°F

Molepolole temperature yesterday

Maximum temperature yesterday: 81 °F (at 2:00 PM)
Minimum temperature yesterday: 41 °F (at 2:00 AM)
Average temperature yesterday: 61 °F

Past Weeks' High & Low Weather Summary

 TemperatureHumidityPressure
High81 °F (Jul 25, 2:00 PM)87% (Jul 15, 7:00 AM)30.51 "Hg (Jul 15, 7:00 AM)
Low30 °F (Jul 20, 7:00 AM)10% (Jul 25, 3:00 PM)30.01 "Hg (Jul 18, 3:00 PM)
Average56 °F38%30.27 "Hg
* Reported Jul 11 11:00 AM — Jul 26 11:00 AM, Molepolole, Weather by CustomWeather, © 2014

Note: Actual official high and low records may vary slightly from our data, if they occured in-between our weather recording intervals... More about our weather records

Advertising

Molepolole weather history for previous 24 hours

 ConditionsComfort  
Time TempWeatherWind HumidityBarometerVisibility
11:00 AM
Jul 26
63 °FSunny.14 mph30%30.21 "Hg10 mi
10:00 AM59 °FSunny.14 mph36%30.18 "Hg10 mi
9:00 AM54 °FSunny.15 mph47%30.18 "Hg10 mi
7:00 AM52 °FPassing clouds.10 mph47%30.12 "HgN/A
6:00 AM45 °FSunny.3 mph49%30.09 "Hg10 mi
5:00 AM46 °FClear.7 mph46%30.07 "Hg10 mi
11:00 PM
Jul 25
55 °FClear.8 mph26%30.07 "Hg10 mi
10:00 PM55 °FPassing clouds.3 mph26%30.07 "HgN/A
9:00 PM61 °FClear.1 mph20%30.04 "Hg10 mi
8:00 PM61 °FClear.3 mph20%30.04 "Hg10 mi
7:00 PM64 °FClear.3 mph18%30.01 "Hg10 mi
6:00 PM75 °FClear.5 mph12%30.01 "Hg10 mi
5:00 PM81 °FPassing clouds.6 mph10%30.01 "HgN/A
4:00 PM81 °FPassing clouds.8 mph10%30.01 "HgN/A
3:00 PM81 °FPassing clouds.7 mph10%30.01 "HgN/A
2:00 PM81 °FPassing clouds.8 mph11%30.04 "HgN/A
1:00 PM79 °FPassing clouds.6 mph13%30.09 "HgN/A
12:00 PM77 °FSunny.6 mph14%30.12 "Hg10 mi
11:00 AM72 °FSunny.2 mph19%30.15 "Hg10 mi
Weather by CustomWeather, © 2014

See weather overviewHow to use our weather pages